Weather History for Santa Fe, NM

Change the Weather History Date:

Wednesday, June 18, 2014

  Actual Average Record
Temperature  
Mean Temperature 68 °F -  
Max Temperature 82 °F 90 °F 95 °F (2002)
Min Temperature 53 °F 50 °F 39 °F (1998)
Cooling Degree Days 2    
Growing Degree Days 18 (Base 50)    
Moisture  
Dew Point 33 °F    
Average Humidity 29    
Maximum Humidity 55    
Minimum Humidity 11    
Precipitation  
Precipitation 0.00 in - - ()
Sea Level Pressure  
Sea Level Pressure 29.77 in    
Wind  
Wind Speed 7 mph (SW)    
Max Wind Speed 22 mph    
Max Gust Speed 34 mph    
Visibility 10 miles    
Events      
Averages and records for this station are not official NWS values.
T = Trace of Precipitation, MM = Missing Value Source: NWS Daily Summary

Daily Weather History Graph

Daily Weather History Graph

Search for Another Location

Airport:

Trip Planner

Search our weather history database for the weather conditions in past years. The results will help you decide how hot, cold, wet, or windy it might be!

Date:

Astronomy

Jun. 18, 2014 Rise Set
Actual Time 5:48 AM MDT 8:22 PM MDT
Civil Twilight 5:18 AM MDT 8:52 PM MDT
Nautical Twilight 4:41 AM MDT 9:29 PM MDT
Astronomical Twilight 3:59 AM MDT 10:11 PM MDT
Moon 12:03 AM MDT (6/18) 12:03 PM MDT (6/18)
Length of Visible Light 15h 34m
Length of Day
14h 34m
Waning Gibbous, 62% of the Moon is Illuminated
Jun 18
Waning Gibbous
Jun 19
Last Quarter
Jun 27
New
Jul 5
First Quarter
Jul 12
Full

Hourly Weather History & Observations

Time (MDT) Temp. Dew Point Humidity Pressure Visibility Wind Dir Wind Speed Gust Speed Precip Events Conditions
12:53 AM 63.0 °F 41.0 °F 45% 29.75 in 10.0 mi WNW 3.5 mph - N/A   Partly Cloudy
1:53 AM 61.0 °F 39.9 °F 46% 29.75 in 10.0 mi Calm Calm - N/A   Clear
2:53 AM 61.0 °F 37.0 °F 41% 29.74 in 10.0 mi Calm Calm - N/A   Clear
3:53 AM 54.0 °F 37.9 °F 55% 29.77 in 10.0 mi Calm Calm - N/A   Clear
4:53 AM 53.1 °F 36.0 °F 52% 29.80 in 10.0 mi North 4.6 mph - N/A   Clear
5:53 AM 55.9 °F 35.1 °F 45% 29.80 in 10.0 mi Calm Calm - N/A   Clear
6:53 AM 55.9 °F 37.0 °F 49% 29.83 in 10.0 mi ESE 3.5 mph - N/A   Clear
7:53 AM 64.0 °F 37.9 °F 38% 29.83 in 10.0 mi SSE 5.8 mph - N/A   Clear
8:53 AM 70.0 °F 36.0 °F 29% 29.82 in 10.0 mi SW 5.8 mph - N/A   Clear
9:53 AM 75.0 °F 36.0 °F 24% 29.80 in 10.0 mi SW 13.8 mph 20.7 mph N/A   Clear
10:53 AM 75.9 °F 36.0 °F 23% 29.78 in 10.0 mi SW 15.0 mph 29.9 mph N/A   Scattered Clouds
11:53 AM 77.0 °F 32.0 °F 19% 29.77 in 10.0 mi WSW 20.7 mph 33.4 mph N/A   Partly Cloudy
12:53 PM 81.0 °F 33.1 °F 18% 29.75 in 10.0 mi WSW 16.1 mph 29.9 mph N/A   Partly Cloudy
1:53 PM 82.9 °F 26.1 °F 13% 29.73 in 10.0 mi SW 20.7 mph 34.5 mph N/A   Clear
2:53 PM 82.0 °F 21.9 °F 11% 29.71 in 10.0 mi SW 19.6 mph 31.1 mph N/A   Partly Cloudy
3:53 PM 82.9 °F 23.0 °F 11% 29.72 in 10.0 mi WSW 21.9 mph 32.2 mph N/A   Partly Cloudy
4:53 PM 81.0 °F 27.0 °F 14% 29.73 in 10.0 mi WSW 18.4 mph - N/A   Clear
5:53 PM 78.1 °F 30.9 °F 18% 29.75 in 10.0 mi WNW 16.1 mph 27.6 mph N/A   Partly Cloudy
6:53 PM 75.0 °F 30.9 °F 20% 29.77 in 10.0 mi WSW 9.2 mph - N/A   Mostly Cloudy
7:53 PM 75.9 °F 30.0 °F 19% 29.74 in 10.0 mi WSW 11.5 mph 20.7 mph N/A   Clear
8:53 PM 69.1 °F 30.9 °F 24% 29.75 in 10.0 mi SW 5.8 mph - N/A   Clear
9:53 PM 66.0 °F 30.0 °F 26% 29.75 in 10.0 mi WSW 4.6 mph - N/A   Clear
10:53 PM 64.0 °F 30.9 °F 29% 29.78 in 10.0 mi Calm Calm - N/A   Clear
11:53 PM 63.0 °F 32.0 °F 31% 29.79 in 10.0 mi Calm Calm - N/A   Clear